Retour au catalogue

SDA_1683

ActifMilitairePO
NORAD 65993·PAYLOAD·🇺🇸 United States

Lancé Oct 15, 2025 depuis Vandenberg Space Force Base

Loading…

Prochains Passages (prochaines 24 heures)

TLE

FraisSource: Space-Track

Époque: Sep 14, 2026, 08:42 UTC

1 65993U 25230V   26257.36276645  .00000081  00000-0  69014-4 0  9998
2 65993  81.3009 130.6277 0001275  58.4379 301.6899 13.78094818 46052

Suivez SDA_1683 en temps réel avec AllMySat

Download on the App Store